Preview of NWS' New Version of Forecast
This preview is not operational and should not be used for support decisions.

Regional Weather Roundup (RWR)

Issued by National Weather Service (NWS)

                            
000
ASUS43 KTOP 241908
RWRKS 

WEATHER ROUNDUP FOR KANSAS
NATIONAL WEATHER SERVICE GOODLAND KS
200 PM CDT SAT AUG 24 2019

NOTE:  "FAIR" INDICATES FEW OR NO CLOUDS BELOW 12,000 FEET WITH NO
SIGNIFICANT WEATHER AND/OR OBSTRUCTIONS TO VISIBILITY.

KSZ001>006-013>018-027>032-041>047-242000-
NORTHWEST KANSAS
  
CITY           SKY/WX    TMP DP  RH WIND       PRES   REMARKS
GOODLAND       CLOUDY    72  63  73 S13       30.00F                  
HAYS           PTSUNNY   77  69  76 S15       29.85S                  
HILL CITY      CLOUDY    77  68  73 S13       29.99S                  
RUSSELL        CLOUDY    77  68  73 SE15      29.97F                  
$$

KSZ061>065-074>080-084>089-242000-
SOUTHWEST KANSAS
  
CITY           SKY/WX    TMP DP  RH WIND       PRES   REMARKS
DODGE CITY     MOSUNNY   81  64  56 SE13G23   29.98F                  
ELKHART        SUNNY     87  63  44 S23       29.96F                  
GARDEN CITY    SUNNY     81  63  54 S17G28    29.95F                  
GREAT BEND     CLOUDY    76  69  79 SE13      29.99F                  
LIBERAL        SUNNY     81  65  58 SE14G22   29.98F                  
PRATT          CLOUDY    78  67  69 SE13      30.00F                  
$$

KSZ066>073-081>083-090>101-242000-
SOUTHEAST KANSAS
  
CITY           SKY/WX    TMP DP  RH WIND       PRES   REMARKS
CHANUTE        CLOUDY    78  69  73 E9        30.02F                  
COFFEYVILLE    CLOUDY    81  71  71 E6        29.98F                  
HUTCHINSON     CLOUDY    78  69  73 SE10      29.99F                  
MEDICINE LODGE   N/A     79  68  69 S10G17    29.97F                  
NEWTON         PTSUNNY   78  69  73 SE13G18   30.00F                  
PARSONS        CLOUDY    80  72  76 CALM      30.01F                  
WICHITA INTL   PTSUNNY   81  70  69 SE10      29.98F                  
WICHITA JABRA  PTSUNNY   79  70  74 SE10G18   29.98F                  
WICHITA MCCONL CLOUDY    79  67  65 E10       29.99F                  
WINFIELD       MOSUNNY   82  72  71 SE12      29.99F                  
$$

KSZ007>012-019>026-033>040-048>060-102>105-242000-
NORTHEAST KANSAS
  
CITY           SKY/WX    TMP DP  RH WIND       PRES   REMARKS
CONCORDIA      CLOUDY    74  69  85 SE10      30.02R                  
EMPORIA        PTSUNNY   73  69  87 E12       30.02F                  
LAWRENCE       CLOUDY    76  65  68 E10       30.05F                  
MANHATTAN      CLOUDY    73  67  81 E10       30.02F                  
MARYSVILLE     CLOUDY    70  66  88 SE14G20   30.04R                  
OLATHE IND     CLOUDY    73  64  73 E13       30.07S                  
OLATHE EXE     CLOUDY    70  64  81 E10       30.07S                  
SALINA         CLOUDY    77  69  76 SE16      30.00S                  
TOPEKA BILLARD CLOUDY    71  66  84 E10       30.04F                  
TOPEKA FORBES  CLOUDY    73  66  78 E8        30.04F                  
$$